Theta_e
346 347 347 347 347 347 346 346 347 346 346 347 348 348 349 348 348 348 349 348 348 350 351 349 349 348 347 347 346 345 345 343 344 344 344 345 344 345 344 343 343 341 338 338 341 343 344 345 344 343 343 343 342 342 341 341 341 340 340 340 342 340
345 346 346 346 346 347 347 347 347 348 348 347 348 348 349 350 349 350 348 349 349 348 348 349 349 347 348 347 346 345 345 345 344 344 344 344 344 344 344 344 343 340 337 337 336 345 345 344 344 343 343 342 341 340 341 341 341 340 340 341 341 342
344 346 346 345 345 346 346 347 347 347 347 347 348 349 349 349 348 348 348 347 348 348 347 347 347 346 347 346 346 344 345 344 344 344 344 344 344 344 344 343 340 339 337 335 340 341 343 343 344 343 342 342 342 340 341 341 341 342 340 341 341 342
344 345 345 344 344 345 345 346 344 346 346 347 347 348 348 348 348 347 347 348 346 346 346 347 346 346 347 346 345 344 344 345 345 345 342 342 342 340 339 339 338 336 338 342 340 339 339 343 343 344 344 342 341 341 341 341 339 341 342 339 340 341
345 345 344 343 343 343 344 344 344 343 345 345 345 347 347 347 347 347 347 346 346 346 345 345 346 346 345 344 344 344 344 344 346 345 342 343 343 342 343 342 342 340 341 341 339 340 340 340 343 342 341 340 341 341 341 342 340 340 341 342 342 341
345 345 344 342 343 343 344 343 344 345 345 345 345 345 346 346 346 347 346 346 345 344 344 343 344 343 344 346 346 344 343 343 343 343 343 342 343 344 344 343 343 341 340 341 342 341 340 341 340 341 339 339 340 342 341 341 341 341 342 343 343 341
344 344 344 344 344 344 343 344 344 344 343 344 346 344 344 345 345 345 345 345 343 343 343 344 344 345 345 346 345 345 344 344 343 342 342 342 342 342 343 343 343 343 342 341 340 341 341 339 340 338 340 339 339 340 342 342 341 341 341 342 342 340
342 343 343 344 343 343 344 343 343 345 344 345 343 343 343 344 344 344 344 345 344 343 342 344 344 345 346 346 346 345 346 345 345 344 343 344 343 342 341 341 342 341 341 341 341 342 341 339 339 340 338 339 339 339 341 341 342 342 342 343 342 340
342 342 342 343 342 343 342 343 344 344 344 344 343 343 343 344 344 344 344 345 345 343 344 345 345 346 348 345 345 345 346 345 345 345 345 343 343 343 342 340 340 339 340 341 341 342 342 341 341 342 340 338 338 338 340 341 342 342 342 342 342 341
341 341 341 342 342 342 341 341 343 344 344 345 344 343 343 343 344 344 343 344 345 345 345 346 344 345 345 345 346 346 345 346 345 346 345 344 345 344 343 343 341 339 336 340 339 341 341 341 341 342 341 341 341 340 340 340 341 342 342 342 342 342
341 341 342 340 341 342 341 341 341 344 344 343 344 343 343 343 344 345 344 345 345 345 346 345 344 344 345 345 345 344 345 345 345 345 346 344 345 344 344 343 343 342 340 339 339 340 339 339 339 339 341 340 341 342 341 341 340 341 341 342 342 342
341 341 340 340 340 341 341 340 342 343 343 343 344 342 342 343 344 344 345 344 345 345 346 346 346 345 345 345 345 345 345 344 344 345 344 344 345 345 344 343 343 343 342 342 340 340 340 338 338 337 340 338 339 340 339 339 339 340 341 341 342 342
341 341 341 340 340 340 341 340 341 342 342 343 343 343 342 342 343 344 345 345 345 345 345 346 346 345 344 345 344 344 344 344 343 343 343 343 343 344 344 343 343 343 342 342 342 341 340 339 338 339 339 337 339 338 340 338 339 340 340 340 341 341
341 340 340 340 340 340 341 341 342 342 343 343 343 342 343 344 344 343 344 344 344 344 344 346 345 345 344 345 344 344 343 343 343 342 342 343 341 342 341 341 340 341 340 341 340 341 339 337 337 339 340 340 339 339 338 338 339 340 340 340 341 341
341 340 340 340 341 341 341 341 341 342 343 344 343 343 344 344 344 344 344 344 344 344 343 343 344 345 345 344 343 342 342 341 341 340 340 341 340 340 340 340 340 339 340 339 340 339 339 339 338 337 337 341 339 339 339 339 341 340 339 340 342 341
340 340 340 341 342 342 342 342 342 342 343 343 343 344 344 344 345 345 345 345 344 344 343 343 343 343 344 343 342 341 341 341 340 339 339 339 339 339 339 339 339 339 337 337 338 338 338 338 338 337 341 341 341 340 338 339 338 339 339 341 340 340
338 339 340 340 340 340 340 341 342 342 342 342 342 343 343 344 345 345 344 344 345 344 344 343 344 343 343 342 342 341 341 341 341 340 340 341 339 339 338 337 338 338 337 335 337 337 337 338 338 339 339 339 341 341 339 338 339 340 341 339 339 339
339 339 338 339 340 340 340 341 342 341 341 340 341 342 343 344 344 345 346 346 346 345 344 344 343 343 342 341 341 341 342 342 342 341 341 340 339 339 338 337 336 338 337 336 336 336 335 335 335 337 338 339 340 339 337 338 338 339 338 338 339 338
337 337 337 338 339 340 340 340 341 340 340 340 341 341 342 343 344 345 345 346 346 346 346 345 343 342 342 341 342 342 341 341 341 340 340 339 339 338 336 335 335 335 336 336 335 336 335 335 334 335 335 337 338 337 336 336 336 336 337 337 337 336
336 337 338 338 339 338 338 337 336 338 339 339 340 341 343 344 345 345 346 345 345 346 346 345 343 343 342 341 341 341 341 341 341 341 339 339 339 338 336 335 334 333 334 336 336 335 335 334 334 333 333 334 336 336 336 336 335 335 335 335 336 336
335 337 337 337 337 337 336 336 338 338 338 339 340 342 342 344 345 346 346 345 345 345 345 344 344 343 341 340 341 342 341 341 342 340 339 337 338 338 338 337 336 335 333 333 334 336 335 335 331 330 333 332 333 336 336 335 335 335 336 336 336 335
335 337 338 339 338 338 340 340 339 339 340 339 340 341 342 344 345 345 345 345 345 345 345 344 344 344 343 341 341 341 341 340 340 341 339 340 339 338 338 337 334 332 333 333 332 334 334 332 328 326 325 327 329 332 335 335 333 334 335 336 335 335
336 337 338 339 340 339 340 342 343 340 341 340 343 344 344 345 345 344 345 345 345 345 345 345 344 343 342 342 341 341 340 342 342 341 339 339 338 337 338 336 334 333 331 330 331 334 334 333 328 329 328 324 322 323 329 331 333 334 335 336 336 335
336 338 339 340 340 342 343 344 344 345 343 343 341 341 341 341 342 343 343 345 345 345 344 344 344 343 342 342 341 340 340 339 338 339 339 338 338 337 337 337 336 335 334 330 331 331 334 334 331 328 321 322 323 322 318 324 329 333 336 335 335 333
336 337 338 339 340 342 342 342 341 342 342 341 341 341 340 340 342 343 343 344 344 344 343 343 343 343 342 342 341 340 340 339 339 339 339 338 337 337 338 337 336 334 333 331 329 332 333 334 333 333 328 324 322 320 320 324 327 328 335 333 333 334
337 338 340 342 344 342 341 339 338 336 334 335 335 336 336 337 339 341 340 342 343 342 343 343 343 343 342 341 341 341 340 339 339 339 338 338 338 338 337 337 336 335 334 334 331 330 330 334 333 333 333 331 329 322 322 326 324 319 333 335 334 333
339 340 341 341 342 342 341 341 339 336 335 335 334 335 337 338 338 338 339 340 341 343 342 342 342 342 342 341 341 341 340 339 339 339 338 337 336 335 335 337 337 336 335 335 334 328 329 332 332 330 332 332 332 333 332 326 321 324 321 329 332 332
340 340 340 341 342 342 340 340 340 338 336 335 335 334 336 336 337 338 338 338 339 339 341 342 341 340 341 340 340 340 339 339 338 338 337 337 336 336 336 337 337 338 338 336 335 332 331 332 329 330 333 330 330 331 332 331 329 323 322 319 323 332
337 337 337 339 339 339 339 340 338 336 334 334 335 334 334 335 336 337 336 336 336 335 336 338 338 339 337 336 337 337 337 337 337 337 336 336 338 337 336 336 336 336 334 336 336 335 333 331 332 330 330 331 331 330 331 332 331 329 324 322 322 324
334 335 335 336 337 337 337 337 337 336 334 332 333 332 333 333 333 335 333 333 333 333 333 334 335 335 335 334 334 334 335 335 336 336 336 336 336 336 337 336 336 336 336 334 335 336 331 331 332 333 332 331 329 329 329 327 327 326 325 325 319 322
333 333 334 335 335 335 335 335 334 334 333 331 331 332 331 331 331 332 331 331 331 331 331 331 332 332 330 330 331 332 332 333 334 334 335 335 336 336 337 337 336 335 336 334 333 333 332 332 334 332 332 331 330 330 327 325 326 327 325 322 321 321
330 331 332 333 334 333 332 332 333 332 331 331 330 329 329 328 328 328 327 327 327 328 327 328 327 328 327 327 328 329 330 331 331 332 333 334 335 336 336 336 336 335 333 334 334 333 331 331 331 332 332 332 331 329 328 327 328 329 326 325 322 322
328 330 331 332 331 331 331 330 330 330 329 329 329 328 327 326 326 325 324 324 323 322 323 323 322 322 322 323 324 325 326 327 328 330 331 332 333 334 333 334 334 333 333 332 333 333 331 331 331 329 329 331 332 330 329 332 332 328 328 330 326 320
327 329 329 329 329 327 327 328 328 328 328 328 325 325 324 323 323 323 322 321 320 320 320 319 319 319 320 320 321 322 323 325 326 327 328 329 331 332 332 332 332 332 332 333 333 333 332 332 332 332 333 330 330 329 330 331 330 329 328 328 324 323
326 327 327 326 325 324 324 325 325 326 326 325 323 322 321 321 320 320 320 319 319 319 317 318 318 319 319 319 319 320 321 321 322 324 326 327 328 329 332 331 331 333 333 334 333 333 332 331 330 330 331 331 331 329 329 330 330 331 332 329 326 325
326 326 325 324 323 323 322 323 323 322 322 322 321 320 319 319 318 319 318 318 317 318 317 317 318 317 318 318 317 318 318 318 320 322 324 326 327 327 328 328 329 331 331 332 331 331 332 332 331 331 330 330 329 329 332 333 332 331 330 330 329 328
324 324 322 322 322 322 321 320 320 320 320 319 318 317 317 317 317 318 317 317 316 316 316 316 315 316 316 316 316 316 316 317 318 321 323 325 326 325 326 326 327 328 328 330 331 330 331 330 332 333 332 331 330 330 330 330 331 332 331 331 330 329
Wind_Speed
9 10 10 10 9 9 10 13 10 10 11 11 11 11 11 11 10 10 9 9 7 5 6 7 5 6 8 5 6 6 4 4 4 6 7 8 8 8 8 8 9 9 7 5 4 5 7 10 10 10 9 10 11 6 3 3 3 3 3 4 4 3
9 11 10 8 8 7 9 9 9 9 9 10 10 10 9 7 8 8 9 7 5 5 4 4 4 5 3 5 6 5 4 3 3 5 6 7 8 7 8 9 9 8 6 4 1 4 6 8 9 10 9 9 6 3 4 4 3 3 3 3 3 5
10 10 10 9 7 8 9 7 8 8 7 8 9 9 7 7 6 6 6 5 4 4 3 2 2 2 2 4 5 3 3 3 2 3 6 7 8 9 8 9 9 7 5 1 2 3 3 5 6 9 8 6 4 3 4 4 3 3 3 2 3 7
9 10 9 8 7 7 7 8 7 7 7 7 7 7 7 7 6 6 5 4 4 4 3 2 3 5 5 2 2 2 4 5 5 6 6 3 3 6 5 6 7 5 2 1 2 3 3 4 5 5 5 4 4 4 4 4 4 3 3 4 3 8
10 9 9 8 8 8 7 6 6 6 6 6 6 6 6 6 6 6 5 4 4 4 3 3 1 2 1 1 0 0 1 0 0 0 1 2 1 1 1 1 2 3 2 1 1 3 3 4 4 4 4 4 4 4 4 4 3 3 3 3 3 6
9 9 8 8 7 8 8 7 7 7 7 6 6 6 6 5 5 5 4 4 3 3 3 2 2 1 2 1 1 1 0 1 1 0 0 1 1 1 0 1 1 2 2 1 0 1 2 3 4 4 4 4 4 4 4 4 4 4 4 4 4 7
8 8 9 8 8 7 7 7 7 7 7 7 6 6 5 5 4 4 4 4 3 3 3 3 2 2 2 2 0 1 0 0 1 1 1 1 1 1 1 0 0 1 2 2 2 1 2 3 3 4 4 4 4 4 4 4 4 5 4 4 4 8
8 9 8 8 8 7 7 7 7 7 6 6 6 6 5 4 4 4 4 3 3 3 3 4 3 2 1 1 0 1 1 1 1 0 1 2 1 1 1 1 1 1 2 2 3 3 2 3 3 3 4 4 4 4 4 4 4 5 4 4 5 8
9 9 9 9 8 7 7 7 7 7 7 7 6 5 5 5 5 4 3 3 4 4 4 3 3 1 1 1 0 1 1 2 2 2 1 1 1 1 1 1 2 2 2 2 2 3 3 2 3 3 3 4 5 5 5 5 5 5 5 5 5 6
10 8 9 8 7 7 7 7 6 6 6 6 5 5 5 5 4 4 4 3 3 3 3 3 2 1 2 1 1 2 2 2 2 2 3 3 2 2 2 1 1 2 2 2 2 2 3 3 4 4 4 4 5 5 5 5 5 5 5 5 5 5
9 9 8 8 8 7 7 7 6 5 5 5 5 5 5 4 4 4 4 4 4 3 2 2 2 2 2 2 2 2 2 3 3 3 3 4 3 4 3 3 3 3 2 2 2 2 3 4 4 5 5 5 4 4 5 4 5 5 6 6 6 5
9 9 9 8 8 7 7 6 6 5 4 4 5 4 4 4 4 4 4 4 4 3 3 2 2 2 2 2 2 2 3 3 4 3 3 4 4 4 4 4 4 3 3 3 3 3 2 4 4 5 5 5 4 4 4 4 5 6 6 6 6 6
10 10 10 9 8 7 6 6 6 5 4 4 4 4 4 4 4 3 3 4 4 4 3 3 3 2 2 2 3 3 3 3 3 3 3 4 5 4 4 4 4 3 4 3 3 3 3 4 4 4 3 3 2 4 3 4 4 5 6 6 6 6
10 10 9 8 8 7 6 5 5 5 5 5 4 3 3 4 4 3 4 4 4 4 3 3 2 2 2 3 3 4 4 4 3 4 4 4 4 4 4 4 4 4 4 5 4 3 3 4 3 3 2 3 3 3 2 3 4 4 5 6 6 6
10 9 9 8 8 7 7 6 6 5 4 4 4 3 3 3 3 3 3 3 3 3 3 3 3 3 2 3 3 3 4 3 4 4 4 4 4 3 4 4 3 4 3 4 4 4 4 4 3 4 3 2 4 2 3 4 4 4 5 5 5 6
10 9 8 7 6 6 6 5 5 5 4 4 3 3 3 3 2 2 2 2 2 2 2 2 2 2 2 2 3 3 3 3 4 3 3 3 3 4 3 3 3 3 4 4 4 4 4 5 5 5 3 3 3 2 3 3 4 4 4 4 5 6
10 9 7 7 7 6 6 5 5 4 4 3 3 2 2 2 2 2 1 1 1 1 1 1 1 1 2 2 2 3 3 3 3 3 3 3 3 3 3 3 3 3 4 4 4 5 4 4 5 6 5 4 3 3 3 2 3 4 3 5 6 6
8 7 7 7 7 6 5 5 4 3 4 3 3 2 2 2 2 1 1 1 1 1 1 1 2 1 1 2 2 3 3 3 3 3 3 2 3 3 3 4 5 3 4 4 4 4 4 5 5 5 5 4 4 4 4 5 4 4 5 6 6 6
7 7 7 7 7 6 6 5 4 5 4 4 3 2 2 2 2 1 1 0 1 1 1 2 2 2 3 3 3 3 3 3 3 4 4 4 3 1 2 3 4 4 3 4 5 5 4 4 4 4 5 5 5 6 6 6 5 5 5 7 8 8
7 7 8 7 7 7 6 5 5 5 5 4 4 3 3 2 2 1 1 1 1 2 2 2 3 4 4 3 3 3 3 3 4 4 3 3 4 3 4 4 3 4 4 4 3 4 3 3 3 5 6 6 6 6 7 7 7 7 7 8 8 7
7 8 7 7 7 7 6 6 5 5 5 4 4 4 3 3 2 2 2 2 3 3 3 3 3 4 4 4 3 3 4 4 3 4 5 4 4 5 4 3 4 4 4 3 2 2 2 3 5 5 4 5 6 6 7 8 9 8 9 8 7 6
7 7 7 7 7 6 5 4 5 5 5 4 4 4 4 4 3 2 3 3 3 3 3 3 3 3 3 3 3 4 4 5 4 3 4 5 5 5 4 4 3 2 3 3 3 2 1 3 4 4 6 6 7 6 7 8 9 9 9 9 8 8
7 7 7 7 6 5 5 5 6 5 5 5 2 1 2 2 2 2 2 2 2 2 2 2 3 3 3 3 3 3 4 4 4 3 4 4 4 5 4 2 3 5 3 3 4 3 3 4 4 4 4 5 5 6 2 5 7 9 9 8 8 9
8 8 7 6 6 7 7 6 5 4 2 2 3 3 3 2 2 2 2 2 1 1 1 2 2 3 3 3 3 4 4 4 4 4 4 5 5 4 4 5 5 5 6 6 4 4 6 5 4 4 4 3 5 5 8 3 2 4 7 9 9 10
9 8 7 8 8 7 7 6 6 4 4 4 3 4 4 4 3 3 3 2 2 1 1 1 2 2 2 3 3 3 3 4 4 4 4 5 5 6 6 4 3 4 5 5 6 4 5 6 7 6 6 5 5 4 4 6 6 7 4 6 8 10
8 8 8 9 8 7 8 8 7 7 6 5 4 4 3 3 2 3 3 3 3 3 3 3 2 2 1 0 1 2 2 3 3 4 4 5 6 6 6 6 5 5 6 7 7 6 7 5 9 9 10 8 6 7 7 7 7 6 2 5 5 6
9 8 7 8 8 7 6 6 6 4 3 3 4 3 3 2 2 3 3 3 3 4 3 3 3 2 2 1 2 2 2 3 3 3 4 4 5 6 6 6 5 6 6 6 6 8 8 5 5 9 9 9 10 8 8 7 7 8 10 3 5 6
8 7 6 5 5 4 5 5 6 6 5 5 5 5 5 4 3 2 3 4 4 4 5 4 5 4 4 3 2 1 2 3 3 4 4 4 5 5 5 6 6 6 5 5 6 7 7 6 6 5 7 9 10 11 10 9 8 9 10 11 10 6
7 6 5 6 6 4 4 5 6 7 7 6 6 5 4 2 3 3 5 4 4 4 4 4 5 4 5 5 4 4 3 3 4 4 4 5 5 4 5 6 6 6 7 5 5 6 7 7 7 7 7 6 7 7 8 9 9 8 8 9 12 11
8 6 5 7 7 7 6 5 5 6 7 5 4 3 3 4 4 3 5 4 3 4 3 3 4 4 5 5 5 5 4 3 4 4 5 5 5 5 5 5 6 7 7 8 5 5 7 6 6 6 7 8 7 6 6 7 8 10 10 10 11 12
8 6 6 7 8 7 6 5 5 6 6 6 5 4 4 4 3 3 3 4 3 3 3 3 3 4 5 6 5 5 5 4 4 4 4 5 5 5 5 5 6 7 7 8 7 8 8 8 6 8 9 7 8 8 7 6 4 4 6 7 8 11
7 6 6 6 8 7 7 6 6 6 6 5 5 4 4 4 3 3 4 3 3 2 3 3 4 4 5 7 5 4 5 5 4 4 5 5 5 5 6 6 5 5 7 7 8 8 8 9 9 7 8 7 7 7 8 8 7 7 7 7 7 10
8 7 7 8 9 8 7 7 6 6 6 4 5 4 4 4 4 3 3 3 3 3 3 4 5 5 6 7 5 5 6 5 5 5 6 6 6 6 6 6 7 7 6 8 9 9 8 8 8 8 9 9 8 8 9 7 8 9 8 8 9 10
9 7 8 8 8 9 8 7 6 5 5 4 5 5 5 5 4 4 4 4 4 5 4 5 5 6 6 7 6 6 6 6 6 6 6 6 6 6 6 6 7 8 8 8 8 10 10 10 9 10 8 9 10 8 8 8 9 8 9 8 9 9
9 8 9 9 8 9 7 7 6 5 5 5 5 5 5 5 5 5 4 5 5 5 5 5 6 6 6 7 7 7 7 6 6 7 7 6 6 6 6 6 7 8 7 8 9 9 9 9 9 11 10 8 8 9 9 8 9 8 8 8 8 9
9 8 8 8 8 7 7 7 7 8 7 7 6 5 5 5 5 5 5 5 5 6 6 6 6 6 7 7 7 7 7 7 7 7 6 6 6 6 6 6 6 7 9 7 9 11 10 10 11 11 8 7 8 9 9 9 8 9 9 8 9 8
9 8 8 8 7 7 7 9 9 8 7 8 8 7 6 6 5 6 6 6 6 6 6 6 6 6 7 7 7 8 7 7 7 7 7 7 7 5 6 5 5 6 7 8 9 10 10 10 11 10 10 10 7 7 8 9 9 8 7 7 8 8
Wind_Direction
140 141 143 142 141 141 142 142 136 137 139 135 134 132 127 127 129 125 123 108 113 118 111 116 119 106 115 112 125 128 115 99 93 91 93 90 93 96 95 87 83 80 76 71 56 98 108 130 142 148 147 153 153 172 166 168 165 159 167 150 172 129
146 146 142 140 143 143 144 148 145 145 146 143 140 139 142 144 141 137 120 131 135 122 121 111 111 102 105 128 132 131 131 110 88 84 84 87 87 88 87 92 93 91 84 82 301 140 120 121 132 142 151 150 177 170 168 174 184 172 173 173 186 132
150 146 142 141 144 142 142 144 146 144 142 149 143 142 143 141 146 138 145 143 139 129 114 108 99 107 109 92 70 96 120 129 110 89 70 65 63 66 67 75 88 90 83 130 177 120 132 139 142 144 146 176 186 185 172 185 190 193 190 166 211 141
152 149 146 143 145 144 143 148 148 146 148 149 144 144 149 150 149 150 148 144 144 130 123 141 114 138 128 102 106 99 57 86 73 60 41 64 71 70 78 82 81 99 123 153 125 143 139 145 149 170 181 183 188 184 190 188 205 198 205 175 207 152
157 153 146 145 148 148 147 149 149 150 151 156 153 150 152 160 159 156 151 150 144 139 139 136 120 66 62 105 98 41 187 214 305 160 34 359 356 72 112 98 130 128 89 110 142 132 145 152 165 172 181 193 191 192 202 201 212 213 203 188 187 167
156 152 151 152 152 147 148 150 149 149 151 154 158 163 163 163 161 161 155 150 147 147 150 147 152 157 162 200 222 91 97 163 217 249 220 338 335 327 15 111 100 109 118 133 170 188 168 163 164 173 183 196 201 201 207 207 208 215 213 206 179 187
153 154 154 151 150 148 154 151 150 153 153 159 163 166 169 167 164 163 158 155 159 165 158 162 168 182 186 205 250 284 80 198 201 198 207 237 253 303 306 333 257 138 140 147 170 210 213 199 191 173 177 196 210 210 212 211 212 216 214 207 195 188
157 159 156 155 153 151 151 157 156 156 160 160 163 164 165 168 161 159 158 159 154 168 167 166 161 188 129 224 297 284 301 277 281 280 196 236 229 214 237 265 266 245 194 164 168 188 211 208 207 208 184 198 211 227 228 224 222 221 218 213 218 192
160 162 160 161 158 154 156 157 163 163 162 166 167 161 159 161 163 159 163 165 158 173 182 185 190 160 220 288 318 270 271 307 317 328 308 289 261 281 249 251 260 261 237 211 182 183 197 207 218 214 216 203 211 216 227 232 229 219 221 222 219 192
164 165 163 164 159 157 162 165 160 167 164 171 158 159 159 172 171 167 164 180 184 190 195 204 222 254 272 304 306 280 272 279 288 305 306 309 318 301 303 293 270 265 271 249 230 192 206 202 215 220 221 226 213 222 220 227 227 225 222 219 218 206
166 167 164 164 162 158 165 167 177 169 173 168 161 159 171 177 184 183 173 175 192 197 206 209 216 227 243 262 262 264 273 294 295 304 301 307 310 304 302 297 305 317 313 296 267 233 239 229 230 229 232 235 226 223 224 223 227 228 225 219 217 218
170 168 168 164 163 164 165 168 173 174 170 168 172 175 175 180 184 186 179 178 186 197 195 211 224 218 242 252 277 291 304 300 311 314 302 295 297 294 292 295 295 286 288 279 279 261 248 242 238 242 238 245 231 217 216 215 223 223 224 222 220 213
170 172 170 167 167 168 167 167 171 172 171 174 178 179 182 188 191 190 190 195 197 195 203 222 219 230 235 270 292 295 307 315 320 318 304 296 294 289 279 279 279 272 262 255 260 259 255 253 248 245 254 259 235 232 214 213 219 220 218 217 219 216
171 171 173 169 167 170 170 165 168 172 174 178 174 180 185 191 193 199 206 209 208 208 215 234 244 236 257 284 306 316 325 330 336 325 312 305 301 300 293 289 285 273 264 262 259 264 271 269 264 258 250 263 242 235 214 220 223 223 216 221 216 213
171 171 171 170 169 165 162 161 167 171 166 176 177 189 189 188 192 201 214 221 217 219 226 232 239 271 287 306 318 322 324 331 330 320 314 307 304 302 296 295 297 288 282 271 270 271 279 281 292 281 272 242 255 237 213 236 225 223 219 220 217 218
167 170 168 166 160 152 153 157 159 160 163 175 181 196 189 187 192 199 214 220 214 222 232 230 250 277 303 319 322 322 326 322 319 312 306 306 303 301 310 306 303 302 297 288 281 275 276 279 277 277 276 255 256 244 245 229 236 233 224 220 220 221
167 164 155 148 144 142 144 146 152 156 167 165 179 187 189 181 188 197 196 204 179 200 216 246 262 276 305 315 311 309 319 318 317 309 296 306 295 314 316 314 307 311 305 299 288 283 273 279 280 269 263 251 245 242 248 263 247 252 238 234 226 218
157 149 142 144 146 139 136 142 144 150 154 154 152 172 160 170 172 173 179 135 110 159 215 220 233 241 261 266 275 285 298 308 314 313 307 311 324 333 328 309 310 299 297 303 297 296 293 287 283 277 267 249 234 226 238 230 232 244 248 249 243 230
143 141 138 138 133 125 129 131 132 137 133 133 137 135 146 152 142 142 124 107 199 210 213 222 218 212 227 226 242 254 259 295 307 307 307 308 298 307 272 269 282 287 279 294 297 295 294 290 281 275 277 268 260 254 254 249 246 239 240 247 249 245
139 137 133 132 135 136 137 140 141 133 126 127 133 141 156 156 160 171 179 221 231 239 229 213 205 207 229 229 233 245 258 258 270 278 285 290 280 261 329 310 261 267 288 277 279 297 290 279 285 287 281 275 265 263 251 245 243 240 238 236 236 232
137 140 140 143 145 144 144 141 141 140 133 138 146 148 157 174 181 172 208 228 234 237 240 233 218 210 212 218 230 236 235 247 258 273 267 279 301 305 295 328 293 235 248 281 284 280 270 289 302 290 265 255 265 257 255 251 248 242 239 235 230 229
143 151 154 155 149 156 162 154 144 142 136 142 153 169 174 173 187 196 217 225 226 227 226 227 220 216 218 218 228 238 244 253 254 256 279 267 263 281 286 249 241 246 234 252 265 238 249 272 266 286 306 307 299 279 259 246 243 244 241 238 231 221
150 154 160 156 156 152 147 138 130 131 142 135 153 119 106 117 159 184 193 209 224 224 224 219 217 214 224 226 238 245 249 264 268 282 280 290 294 290 269 255 228 258 239 219 256 243 247 253 294 304 294 287 292 313 197 243 235 246 243 239 234 234
157 158 153 153 145 139 131 119 100 116 103 92 117 137 130 143 149 180 168 170 178 224 242 237 209 209 215 223 229 237 252 258 269 260 269 280 281 277 285 266 244 236 262 261 216 225 213 220 241 276 269 241 311 306 303 297 293 257 232 238 234 239
153 150 150 147 146 139 132 129 126 112 111 114 127 130 138 116 91 97 100 90 79 101 141 164 189 209 219 220 224 243 235 243 258 267 266 273 285 285 288 282 267 268 254 266 278 274 229 218 224 227 255 277 266 246 266 300 313 286 229 234 235 240
143 148 150 149 149 151 148 141 142 137 138 138 132 146 131 101 75 64 74 82 98 105 118 127 139 145 159 251 254 252 262 258 246 250 253 264 270 278 283 275 245 257 263 256 261 272 277 229 234 230 230 250 274 286 296 296 302 291 169 232 233 231
145 140 136 139 145 141 138 143 140 144 152 157 145 106 90 89 92 85 80 74 73 81 91 99 86 70 91 60 6 346 320 300 300 286 288 279 276 273 285 282 269 253 259 261 252 258 262 258 229 236 241 239 247 253 263 282 282 293 291 265 211 236
122 126 123 127 123 119 124 120 108 108 115 120 121 123 123 109 104 101 79 62 66 54 45 51 67 67 49 36 25 24 335 322 312 311 304 285 279 283 278 275 271 272 259 250 257 260 269 270 265 267 229 243 245 252 252 241 241 260 280 289 283 244
96 95 93 96 99 88 94 100 109 125 120 120 124 125 124 111 99 82 75 60 56 56 52 47 45 55 53 43 31 8 1 338 317 305 283 276 269 275 282 289 285 274 268 258 256 269 269 263 260 262 279 257 250 255 256 249 244 236 252 273 276 278
95 90 89 91 91 91 95 100 106 118 122 121 118 111 99 87 71 66 76 64 59 50 37 44 39 32 33 29 20 9 359 350 325 302 286 281 286 277 272 277 280 287 290 285 270 263 274 282 281 280 268 271 274 275 263 257 247 242 248 247 264 280
93 93 93 93 96 96 93 93 102 104 107 109 108 105 103 84 74 65 55 50 39 39 32 30 16 28 28 18 13 11 1 348 329 315 298 298 294 294 291 289 290 290 281 280 284 283 280 271 262 268 270 272 274 268 268 270 282 262 235 241 254 260
90 95 98 99 97 92 90 86 85 87 88 84 90 92 88 84 62 46 27 19 19 34 33 30 19 18 20 8 2 1 354 342 334 327 322 310 298 294 295 291 286 278 284 276 273 270 269 276 278 276 275 268 264 274 282 277 274 270 274 268 265 277
101 102 97 97 93 89 85 83 86 88 89 86 82 83 82 64 50 48 57 59 46 44 27 12 12 3 4 358 355 352 346 337 331 330 323 314 303 298 292 285 286 281 274 280 286 282 273 265 268 274 280 277 278 273 267 265 265 264 266 268 271 274
108 105 102 92 87 83 78 78 79 84 87 88 76 67 67 70 64 60 51 52 46 22 16 17 8 7 359 355 356 348 340 334 332 328 322 315 310 306 299 291 284 280 279 276 274 272 271 270 261 253 246 265 268 266 272 268 266 269 271 274 273 274
106 94 89 86 85 87 85 78 73 69 67 74 78 76 68 60 55 51 46 47 40 25 20 9 5 360 360 360 355 348 347 340 336 330 325 322 323 315 306 297 291 284 287 288 284 281 273 264 262 260 258 267 277 280 275 271 272 268 263 261 265 270
91 85 83 85 84 85 82 78 70 68 65 66 69 71 67 60 60 54 52 44 36 23 13 1 2 0 0 1 353 351 350 346 340 337 328 321 326 325 320 316 304 298 296 297 294 291 284 275 266 258 261 258 262 264 272 271 267 270 271 268 264 267
90 83 80 81 84 82 84 79 70 66 65 65 64 62 63 60 57 52 47 38 23 15 9 8 3 360 356 358 353 355 356 353 350 341 334 334 336 331 326 319 315 315 310 308 302 296 292 283 277 268 263 255 257 263 269 279 282 281 282 278 270 265